FW7828 Weather Reports


time (UTC)temp
F
wind
direction
speed
knots
gust
knots
rain 1hr
in
rain 24hr
in
rain mn
in
humidity
%
barometer
mb
20260905095834 72 43 0.0 0.0 0.00 0.00 0.00 94 1009.4
20260905095329 72 45 0.0 0.0 0.00 0.00 0.00 93 1009.3
20260905094823 72 33 0.0 0.0 0.00 0.00 0.00 93 1009.2
20260905094319 72 40 0.0 0.0 0.00 0.00 0.00 93 1009.2
20260905093818 72 42 0.0 0.0 0.00 0.00 0.00 93 1009.2
20260905093314 72 45 0.0 0.0 0.00 0.00 0.00 93 1009.2
20260905092810 73 39 0.0 0.0 0.00 0.00 0.00 93 1009.2
20260905092309 73 58 0.0 0.0 0.00 0.00 0.00 92 1009.1
20260905091805 73 39 0.9 0.9 0.00 0.00 0.00 92 1009.2
20260905091304 73 119 0.0 0.0 0.00 0.00 0.00 92 1009.3
20260905090803 73 78 0.0 0.0 0.00 0.00 0.00 92 1009.2
20260905090259 73 6 0.9 0.9 0.00 0.00 0.00 92 1009.5
20260905085759 73 32 0.0 0.0 0.00 0.00 0.00 92 1009.3
20260905085259 73 320 0.0 0.9 0.00 0.00 0.00 91 1009.1
20260905084754 73 191 0.0 0.0 0.00 0.00 0.00 91 1008.8
20260905084254 73 244 0.0 0.0 0.00 0.00 0.00 90 1009.0
20260905083748 73 165 0.9 0.9 0.00 0.00 0.00 90 1008.9
20260905083243 73 185 0.9 1.7 0.00 0.00 0.00 91 1009.1
20260905082739 73 82 0.0 0.0 0.00 0.00 0.00 91 1009.1
20260905082236 73 63 0.0 0.0 0.00 0.00 0.00 90 1009.0
20260905081736 73 93 0.0 0.0 0.00 0.00 0.00 90 1009.0
20260905081231 73 352 0.9 0.9 0.00 0.00 0.00 90 1009.0
20260905080731 73 55 0.0 0.0 0.00 0.00 0.00 90 1009.2
20260905080231 73 103 0.9 0.9 0.00 0.00 0.00 90 1009.2
20260905075730 72 73 0.0 0.0 0.00 0.00 0.00 91 1009.3
20260905075229 72 59 0.0 0.0 0.00 0.00 0.00 91 1009.2
20260905074728 72 31 0.0 0.0 0.00 0.00 0.00 92 1009.5
20260905074224 72 123 0.0 0.0 0.00 0.00 0.00 92 1009.2
20260905073719 72 130 2.6 2.6 0.00 0.00 0.00 92 1009.3
20260905073215 72 151 0.0 0.9 0.00 0.00 0.00 92 1009.3
20260905072714 72 96 0.0 0.0 0.00 0.00 0.00 92 1009.5
20260905072209 72 36 0.0 0.0 0.00 0.00 0.00 92 1009.2
20260905071706 72 339 0.0 0.9 0.00 0.00 0.00 92 1009.1
20260905071202 72 98 0.0 0.0 0.00 0.00 0.00 92 1009.1
20260905070656 72 187 0.9 0.9 0.00 0.00 0.00 92 1008.9
20260905070152 72 26 0.0 0.0 0.00 0.00 0.00 92 1009.0
20260905065651 72 224 0.0 0.0 0.00 0.00 0.00 92 1009.0
20260905065145 72 63 0.0 0.0 0.00 0.00 0.00 92 1008.9
20260905064640 72 30 0.0 0.0 0.00 0.00 0.00 92 1009.1
20260905064136 72 45 0.0 0.0 0.00 0.00 0.00 92 1009.3
20260905063634 73 338 0.0 0.0 0.00 0.00 0.00 91 1009.2
20260905063131 73 299 0.9 0.9 0.00 0.00 0.00 91 1009.3
20260905062627 73 70 0.0 0.0 0.00 0.00 0.00 91 1009.3
20260905062126 73 272 0.9 0.9 0.00 0.00 0.00 91 1009.4
20260905061621 73 99 0.9 0.9 0.00 0.00 0.00 91 1009.5
20260905061120 73 218 0.0 0.0 0.00 0.00 0.00 91 1009.4
20260905060616 73 41 0.0 0.0 0.00 0.00 0.00 90 1009.6
20260905060113 74 70 0.0 0.9 0.00 0.00 0.00 89 1009.5
20260905055611 74 31 0.9 1.7 0.00 0.00 0.00 88 1009.6
20260905055106 74 43 0.0 0.0 0.00 0.00 0.00 87 1009.5
20260905054602 74 269 0.0 0.0 0.00 0.00 0.00 87 1009.7
20260905054057 73 161 2.6 2.6 0.00 0.00 0.00 89 1010.0
20260905053556 73 72 0.0 0.0 0.00 0.00 0.00 91 1010.1
20260905053052 73 251 0.0 0.9 0.00 0.00 0.00 92 1010.1
20260905052551 73 62 0.9 0.9 0.00 0.00 0.00 92 1010.4
20260905052046 73 181 0.0 0.0 0.00 0.00 0.00 93 1010.2
20260905051541 73 155 0.0 0.0 0.00 0.00 0.00 93 1010.6
20260905051038 73 221 0.0 0.0 0.00 0.00 0.00 93 1010.4
20260905050533 73 161 1.7 1.7 0.00 0.00 0.00 94 1010.4
20260905050031 73 142 0.9 1.7 0.00 0.00 0.00 95 1010.4
20260905045525 73 43 0.9 0.9 0.00 0.00 0.00 95 1010.8
20260905045021 73 78 0.0 0.0 0.00 0.00 0.00 95 1010.8
20260905044520 73 130 0.9 1.7 0.00 0.00 0.00 96 1010.7
20260905044015 73 345 0.0 0.9 0.00 0.00 0.00 95 1010.5
20260905043514 73 351 0.9 1.7 0.00 0.00 0.00 95 1010.4
20260905043009 73 57 0.0 0.0 0.00 0.00 0.00 95 1010.6
20260905042508 74 316 1.7 1.7 0.00 0.00 0.00 95 1010.4
20260905041958 74 39 0.0 0.9 0.00 0.00 0.00 95 1010.6
20260905041453 74 131 1.7 2.6 0.00 0.00 0.00 95 1010.5
20260905040949 74 350 0.9 0.9 0.00 0.00 0.00 95 1010.4
20260905040448 74 189 0.9 1.7 0.00 0.00 0.00 95 1010.6
20260905035947 74 43 0.0 0.0 0.00 0.28 0.28 95 1010.9
20260905035442 74 288 0.0 0.9 0.00 0.28 0.28 95 1010.8
20260905034940 75 253 1.7 2.6 0.00 0.28 0.28 96 1010.8
20260905034435 75 172 3.5 4.3 0.00 0.28 0.28 96 1011.2
20260905033933 75 291 0.9 0.9 0.00 0.28 0.28 96 1011.1
20260905033428 75 273 0.0 0.0 0.00 0.28 0.28 96 1010.7
20260905032928 75 331 0.0 0.9 0.00 0.28 0.28 96 1010.7
20260905032423 75 237 1.7 1.7 0.00 0.28 0.28 96 1010.6
20260905031918 76 189 0.0 0.9 0.00 0.28 0.28 96 1010.6
20260905031414 76 275 0.9 0.9 0.00 0.28 0.28 96 1010.2
20260905030909 76 320 0.9 0.9 0.00 0.28 0.28 96 1010.1
20260905030400 76 88 0.0 0.0 0.00 0.28 0.28 96 1009.9
20260905025858 76 195 0.0 0.0 0.00 0.28 0.28 96 1010.1
20260905025354 76 134 0.0 0.0 0.00 0.28 0.28 96 1010.2
20260905024850 76 58 0.0 0.0 0.00 0.28 0.28 96 1010.1
20260905024350 75 352 0.0 0.0 0.00 0.28 0.28 96 1010.2
20260905023846 75 29 0.0 0.0 0.00 0.28 0.28 96 1010.7
20260905023341 75 302 0.0 0.9 0.00 0.28 0.28 96 1011.1
20260905022839 75 325 0.0 0.0 0.00 0.28 0.28 96 1010.9
20260905022335 75 340 0.0 0.0 0.00 0.28 0.28 96 1011.1
20260905021830 76 295 0.9 0.9 0.00 0.28 0.28 96 1011.2
20260905021325 76 181 0.9 1.7 0.05 0.28 0.28 96 1011.7
20260905020820 75 275 0.0 0.0 0.17 0.28 0.28 96 1012.4
20260905020315 75 86 0.0 0.0 0.24 0.27 0.27 96 1012.3
20260905015814 74 125 0.9 0.9 0.24 0.26 0.26 95 1013.0
20260905015314 74 126 0.9 0.9 0.17 0.24 0.24 95 1013.6
20260905014813 74 56 0.0 0.0 0.07 0.21 0.21 95 1014.0
20260905014309 73 258 0.0 0.9 0.12 0.21 0.21 94 1014.2
20260905013804 73 98 1.7 2.6 0.05 0.20 0.20 94 1014.3
20260905013300 73 207 0.0 0.0 0.00 0.19 0.19 94 1014.1
20260905012755 73 116 0.0 0.0 0.00 0.19 0.19 94 1014.3
20260905012251 73 338 0.0 0.9 0.07 0.19 0.19 94 1014.1
20260905011747 73 47 0.9 0.9 0.07 0.19 0.19 94 1014.3
20260905011243 73 34 0.0 0.9 0.07 0.18 0.18 94 1014.1
20260905010737 74 44 0.9 1.7 0.12 0.18 0.18 94 1014.0
20260905010232 74 82 0.9 0.9 0.12 0.17 0.17 94 1013.6
20260905005729 74 49 2.6 2.6 0.12 0.16 0.16 94 1013.6
20260905005225 74 35 1.7 1.7 0.12 0.15 0.15 93 1013.6
20260905004719 74 3 3.5 5.2 0.12 0.14 0.14 93 1013.7
20260905004214 74 129 0.9 1.7 0.05 0.13 0.13 92 1013.4
20260905003714 74 127 0.0 0.9 0.05 0.13 0.13 93 1013.1
20260905003210 74 97 1.7 2.6 0.00 0.12 0.12 93 1013.0
20260905002706 75 242 0.9 1.7 0.07 0.12 0.12 93 1013.3
20260905002205 75 325 0.9 1.7 0.07 0.12 0.12 94 1012.8
20260905001701 75 60 0.0 0.0 0.00 0.11 0.11 93 1012.7
20260905001159 75 55 0.9 0.9 0.00 0.11 0.11 93 1012.6
20260905000655 76 30 1.7 1.7 0.12 0.11 0.11 92 1012.6
20260905000151 76 14 2.6 2.6 0.28 0.11 0.11 92 1012.8
20260904235651 76 36 2.6 4.3 0.17 0.09 0.09 92 1012.9
20260904235150 76 36 1.7 1.7 0.14 0.06 0.06 92 1013.1
20260904234645 77 43 0.9 0.9 0.19 0.06 0.06 92 1013.0
20260904234141 77 32 1.7 1.7 0.05 0.04 0.04 93 1013.4
20260904233637 78 63 2.6 2.6 0.00 0.03 0.03 95 1013.2
20260904233132 78 335 0.9 0.9 0.00 0.03 0.03 95 1011.4
20260904232629 78 257 0.9 0.9 0.00 0.03 0.03 95 1011.5
20260904232125 77 4 0.0 0.0 0.00 0.03 0.03 95 1011.6
20260904231620 77 290 0.0 0.0 0.00 0.03 0.03 94 1011.3
20260904231115 77 339 1.7 1.7 0.00 0.03 0.03 94 1011.5
20260904230614 77 45 0.0 0.0 0.00 0.03 0.03 94 1011.6
20260904230110 77 45 0.0 0.0 0.00 0.03 0.03 94 1011.6
20260904225607 77 40 0.0 0.9 0.00 0.03 0.03 93 1012.0
20260904225102 77 338 0.9 0.9 0.00 0.03 0.03 93 1012.5
20260904224557 77 286 0.9 0.9 0.00 0.03 0.03 93 1012.3
20260904224052 77 39 0.0 0.0 0.00 0.03 0.03 93 1011.9
20260904223551 77 227 0.0 0.0 0.00 0.03 0.03 93 1011.6
20260904223047 77 156 0.0 0.0 0.00 0.03 0.03 93 1011.8
20260904222542 77 251 0.9 0.9 0.00 0.03 0.03 93 1011.6
20260904222038 77 293 0.0 0.9 0.00 0.03 0.03 93 1011.2
20260904221532 77 55 0.0 0.0 0.00 0.03 0.03 92 1011.4
20260904221027 77 47 0.0 0.0 0.00 0.03 0.03 92 1011.2
20260904220526 78 346 0.9 0.9 0.00 0.03 0.03 91 1011.4
20260904220022 78 9 0.9 0.9 0.00 0.03 0.03 91 1011.6
20260904215522 78 72 0.0 0.9 0.12 0.03 0.03 90 1011.6
20260904215018 80 250 0.9 0.9 0.19 0.03 0.03 87 1012.0
20260904214513 81 331 0.9 0.9 0.07 0.01 0.01 82 1011.6
20260904214008 81 51 0.0 0.0 0.00 0.00 0.00 79 1011.7
20260904213506 82 353 2.6 2.6 0.00 0.00 0.00 77 1011.8
20260904213004 83 19 0.9 0.9 0.00 0.00 0.00 76 1011.9
20260904212502 83 21 0.9 0.9 0.00 0.00 0.00 77 1011.4
20260904211957 84 351 2.6 5.2 0.00 0.00 0.00 80 1011.5
20260904211452 86 358 6.1 7.0 0.00 0.00 0.00 85 1011.4
20260904210948 87 350 0.9 0.9 0.00 0.00 0.00 87 1011.0
20260904210447 86 348 0.0 0.0 0.00 0.00 0.00 85 1010.7
20260904205943 86 255 0.0 0.0 0.00 0.00 0.00 85 1011.0
20260904205438 87 256 0.0 0.0 0.00 0.00 0.00 85 1011.6
20260904204935 87 356 0.0 0.0 0.00 0.00 0.00 87 1011.6
20260904204430 88 3 0.9 0.9 0.00 0.00 0.00 86 1011.3
20260904203927 88 345 0.0 0.9 0.00 0.00 0.00 85 1010.6
20260904203423 89 10 0.0 0.0 0.00 0.00 0.00 84 1010.1
20260904202918 90 351 0.9 0.9 0.00 0.00 0.00 82 1010.1
20260904202414 91 10 0.0 0.0 0.00 0.00 0.00 80 1009.9
20260904201910 92 2 0.0 0.0 0.00 0.00 0.00 78 1010.8
20260904201405 93 267 0.0 0.0 0.00 0.00 0.00 74 1010.5
20260904200855 95 253 0.0 0.0 0.00 0.00 0.00 74 1010.5
20260904200353 94 328 0.0 0.9 0.00 0.00 0.00 72 1010.6
20260904195848 93 201 2.6 2.6 0.00 0.00 0.00 71 1010.5
20260904195346 94 205 2.6 2.6 0.00 0.00 0.00 69 1010.4
20260904194841 94 148 0.9 0.9 0.00 0.00 0.00 70 1010.8
20260904194341 94 142 0.9 1.7 0.00 0.00 0.00 69 1011.0
20260904193836 96 171 0.9 1.7 0.00 0.00 0.00 70 1011.1
20260904193331 96 183 2.6 2.6 0.00 0.00 0.00 68 1011.0
20260904192826 95 153 2.6 2.6 0.00 0.00 0.00 70 1011.1
20260904192321 95 357 0.0 0.9 0.00 0.00 0.00 69 1011.2
20260904191819 96 164 1.7 1.7 0.00 0.00 0.00 67 1011.3
20260904191315 97 282 0.9 0.9 0.00 0.00 0.00 64 1011.5
20260904190811 97 267 0.9 1.7 0.00 0.00 0.00 66 1011.5
20260904190306 96 5 0.0 0.0 0.00 0.00 0.00 65 1011.5
20260904185802 96 4 0.0 0.0 0.00 0.00 0.00 68 1011.6
20260904185257 94 180 0.9 0.9 0.00 0.00 0.00 69 1012.0
20260904184756 93 178 1.7 2.6 0.00 0.00 0.00 71 1011.9
20260904184251 94 123 2.6 2.6 0.00 0.00 0.00 70 1011.8
20260904183747 95 164 2.6 2.6 0.00 0.00 0.00 68 1011.9
20260904183242 95 144 0.0 0.0 0.00 0.00 0.00 66 1012.0
20260904182737 95 157 3.5 4.3 0.00 0.00 0.00 65 1012.1
20260904182233 95 183 2.6 2.6 0.00 0.00 0.00 67 1012.5
20260904181728 95 184 0.9 1.7 0.00 0.00 0.00 66 1012.3
20260904181227 95 164 0.9 0.9 0.00 0.00 0.00 68 1012.4
20260904180723 95 166 1.7 1.7 0.00 0.00 0.00 67 1012.5
20260904180218 94 49 0.0 0.9 0.00 0.00 0.00 66 1012.7
20260904175717 93 137 3.5 4.3 0.00 0.00 0.00 68 1012.5
20260904175216 93 119 3.5 6.1 0.00 0.00 0.00 70 1012.6
20260904174711 93 169 0.9 2.6 0.00 0.00 0.00 71 1012.7
20260904174207 93 197 2.6 2.6 0.00 0.00 0.00 72 1012.6
20260904173702 93 196 1.7 1.7 0.00 0.00 0.00 71 1012.6
20260904173157 93 175 0.9 1.7 0.00 0.00 0.00 71 1012.8
20260904172654 93 178 1.7 1.7 0.00 0.00 0.00 71 1012.8
20260904172153 93 176 1.7 2.6 0.00 0.00 0.00 68 1012.8
20260904171648 93 186 0.0 0.9 0.00 0.00 0.00 69 1012.7
20260904171143 92 165 2.6 2.6 0.00 0.00 0.00 74 1013.0
20260904170640 91 163 1.7 1.7 0.00 0.00 0.00 75 1012.8
20260904170135 91 90 2.6 2.6 0.00 0.00 0.00 74 1013.0
20260904165634 92 142 2.6 2.6 0.00 0.00 0.00 72 1012.9
20260904165133 93 178 0.9 1.7 0.00 0.00 0.00 72 1013.3
20260904164633 92 95 0.9 1.7 0.00 0.00 0.00 71 1013.1
20260904164129 92 151 1.7 1.7 0.00 0.00 0.00 70 1013.5
20260904163624 92 214 2.6 2.6 0.00 0.00 0.00 70 1013.3
20260904163120 92 139 2.6 4.3 0.00 0.00 0.00 70 1013.4
20260904162614 92 75 0.9 0.9 0.00 0.00 0.00 71 1013.5
20260904162109 91 138 0.9 0.9 0.00 0.00 0.00 70 1013.6
20260904161604 91 202 0.9 0.9 0.00 0.00 0.00 72 1013.8
20260904161059 91 248 0.9 0.9 0.00 0.00 0.00 70 1013.4
20260904160554 91 166 1.7 2.6 0.00 0.00 0.00 71 1013.6
20260904160050 90 156 1.7 2.6 0.00 0.00 0.00 73 1013.6
20260904155550 89 173 0.9 1.7 0.00 0.00 0.00 75 1013.5
20260904155044 89 190 1.7 2.6 0.00 0.00 0.00 75 1013.8
20260904154538 89 158 1.7 1.7 0.00 0.00 0.00 74 1013.4
20260904154033 89 159 2.6 2.6 0.00 0.00 0.00 75 1013.6
20260904153532 89 211 2.6 2.6 0.00 0.00 0.00 74 1013.6
20260904153029 89 188 0.9 1.7 0.00 0.00 0.00 74 1013.6
20260904152524 89 93 0.9 0.9 0.00 0.00 0.00 74 1013.6
20260904152020 89 89 1.7 1.7 0.00 0.00 0.00 74 1013.4
20260904151515 89 94 0.9 1.7 0.00 0.00 0.00 74 1013.7
20260904151014 89 112 0.9 0.9 0.00 0.00 0.00 75 1013.9
20260904150515 88 168 2.6 5.2 0.00 0.00 0.00 73 1013.7
20260904150009 88 166 0.0 0.9 0.00 0.00 0.00 75 1013.5
20260904145504 87 175 0.0 1.7 0.00 0.00 0.00 76 1013.4
20260904144959 87 139 0.9 0.9 0.00 0.00 0.00 76 1013.9
20260904144454 86 130 0.0 0.9 0.00 0.00 0.00 77 1013.6
20260904143950 86 197 2.6 2.6 0.00 0.00 0.00 78 1013.8
20260904143446 85 188 1.7 1.7 0.00 0.00 0.00 80 1013.8
20260904142942 85 138 1.7 1.7 0.00 0.00 0.00 80 1013.8
20260904142439 85 357 1.7 1.7 0.00 0.00 0.00 80 1013.7
20260904141933 85 162 0.0 0.0 0.00 0.00 0.00 81 1014.1
20260904141428 84 158 1.7 1.7 0.00 0.00 0.00 81 1013.7
20260904140925 84 124 0.0 0.9 0.00 0.00 0.00 82 1013.8
20260904140424 84 144 0.9 0.9 0.00 0.00 0.00 82 1013.7
20260904135923 83 56 1.7 1.7 0.00 0.00 0.00 81 1013.8
20260904135423 83 183 0.0 0.9 0.00 0.00 0.00 82 1013.6
20260904134920 83 177 1.7 2.6 0.00 0.00 0.00 83 1013.8
20260904134419 83 194 0.0 0.9 0.00 0.00 0.00 84 1013.9
20260904133914 83 180 1.7 2.6 0.00 0.00 0.00 84 1013.5
20260904133409 83 177 2.6 2.6 0.00 0.00 0.00 83 1013.6
20260904132904 83 166 1.7 1.7 0.00 0.00 0.00 84 1013.9
20260904132359 82 173 3.5 6.1 0.00 0.00 0.00 86 1013.8
20260904131858 82 239 1.7 1.7 0.00 0.00 0.00 86 1013.6
20260904131354 82 172 1.7 1.7 0.00 0.00 0.00 86 1013.8
20260904130849 82 199 1.7 1.7 0.00 0.00 0.00 86 1013.9
20260904130348 82 104 1.7 1.7 0.00 0.00 0.00 85 1013.6
20260904125843 82 121 0.9 0.9 0.00 0.00 0.00 86 1014.0
20260904125340 81 196 2.6 4.3 0.00 0.00 0.00 86 1013.7
20260904124839 81 196 0.9 0.9 0.00 0.00 0.00 86 1013.8
20260904124336 81 183 0.9 1.7 0.00 0.00 0.00 87 1014.0
20260904123830 80 166 0.0 0.9 0.00 0.00 0.00 87 1014.1
20260904123326 80 117 1.7 1.7 0.00 0.00 0.00 88 1014.1
20260904122821 80 24 0.0 0.0 0.00 0.00 0.00 88 1014.1
20260904122320 80 31 0.0 0.0 0.00 0.00 0.00 89 1014.3
20260904121816 80 124 1.7 1.7 0.00 0.00 0.00 89 1014.3
20260904121312 80 259 0.0 0.0 0.00 0.00 0.00 89 1014.2
20260904120808 80 129 2.6 2.6 0.00 0.00 0.00 90 1014.2
20260904120303 80 78 0.9 0.9 0.00 0.00 0.00 90 1014.4
20260904115758 79 202 0.0 0.9 0.00 0.00 0.00 90 1014.0
20260904115254 79 211 1.7 1.7 0.00 0.00 0.00 90 1013.8
20260904114748 79 349 0.0 0.9 0.00 0.00 0.00 90 1014.0
20260904114248 79 146 0.0 0.9 0.00 0.00 0.00 90 1014.0
20260904113743 79 301 0.0 0.9 0.00 0.00 0.00 91 1014.0
20260904113242 79 3 0.0 0.0 0.00 0.00 0.00 91 1014.2
20260904112737 79 43 2.6 4.3 0.00 0.00 0.00 91 1013.7
20260904112233 79 330 0.0 0.0 0.00 0.00 0.00 91 1013.8
20260904111729 79 158 0.9 1.7 0.00 0.00 0.00 91 1013.9
20260904111224 79 123 0.9 0.9 0.00 0.00 0.00 91 1013.9
20260904110720 79 98 0.0 0.0 0.00 0.00 0.00 91 1013.7
20260904110219 79 334 1.7 1.7 0.00 0.00 0.00 91 1013.8
20260904105714 79 212 0.9 0.9 0.00 0.00 0.00 91 1013.7
20260904105209 79 194 0.9 0.9 0.00 0.00 0.00 91 1013.7
20260904104704 79 166 0.9 0.9 0.00 0.00 0.00 91 1013.9
20260904104200 79 354 0.9 0.9 0.00 0.00 0.00 91 1013.6
20260904103656 79 248 1.7 1.7 0.00 0.00 0.00 91 1013.4
20260904103151 79 345 0.0 0.9 0.00 0.00 0.00 91 1013.6
20260904102647 79 323 1.7 1.7 0.00 0.00 0.00 91 1013.5
20260904102142 79 358 0.9 0.9 0.00 0.00 0.00 91 1013.6
20260904101639 79 326 0.9 1.7 0.00 0.00 0.00 91 1013.6
20260904101134 79 148 0.0 0.9 0.00 0.00 0.00 91 1013.9
20260904100630 79 101 0.9 1.7 0.00 0.00 0.00 91 1013.8
20260904100125 79 147 2.6 5.2 0.00 0.00 0.00 91 1013.8